Find Yuxing 3-06

NORAD ID: 68199 Int'l Des: NNA 2026-052 Owner: YUXING/HUST Country: CN operational
LEOCIRCULARRETROGRADESSO

Live Position

Loading 3D Globe...

About Yuxing 3-06

Description loading...

Upcoming Passes

Passes for default location (London). Set your location on the main map for personalized predictions.

Altitude History

Loading altitude history...

Two-Line Element Set

1 68199U 26052B 26116.49707103 .00006536 00000-0 40097-3 0 9998
2 68199 97.5341 192.0892 0014138 124.9618 235.2942 15.10380630 6249
Epoch: Apr 26, 2026 • Age: 120 hours

Current Status

Altitude 538.1 km
Velocity 7.61 km/s
Sub-Earth Point 75.92°N, 14.8°E
Launch Date Mar 16, 2026
Age 0.1 years
Type other

Technical Details

Classification Payload
Mass 50.00 kg
Dry Mass 50.00 kg
Total Mass 50.00 kg
Length 1.50 m
Diameter 1.00 m
Span 1.50 m
Shape Box
Manufacturer MOFANG
Bus Type YX3
Phase Status In Orbit
Owner/State YUXING/HUST/CN

Most Searched